• In Uzbekistan
  • List of Countries
  • For 7 days
  • Water Temperature
  • Satellite Maps
  • Weather Map
  • Weather Widgets
  • user-avatar
    Login

    Hourly Weather Tirana

    Today, 18 August, Friday

    Time Temperature Precipitation Wind Pressure Humidity
    00:00 +25°C° 0 mm 4 mps 754 mmHg 49%
    01:00 +25°C° 0 mm 3 mps 753 mmHg 50%
    02:00 +25°C° 0 mm 3 mps 753 mmHg 50%
    03:00 +25°C° 0 mm 3 mps 754 mmHg 50%
    04:00 +25°C° 0 mm 3 mps 754 mmHg 50%
    05:00 +26°C° 0 mm 3 mps 754 mmHg 46%
    06:00 +28°C° 0 mm 3 mps 754 mmHg 43%
    07:00 +30°C° 0 mm 3 mps 754 mmHg 38%
    08:00 +33°C° 0 mm 3 mps 754 mmHg 33%
    09:00 +35°C° 0 mm 3 mps 754 mmHg 29%
    10:00 +37°C° 0 mm 3 mps 754 mmHg 24%
    11:00 +38°C° 0 mm 3 mps 754 mmHg 23%
    12:00 +38°C° 0 mm 4 mps 754 mmHg 22%
    13:00 +40°C° 0 mm 5 mps 754 mmHg 21%
    14:00 +39°C° 0 mm 5 mps 753 mmHg 22%
    15:00 +37°C° 0 mm 5 mps 753 mmHg 24%
    16:00 +38°C° 0 mm 6 mps 753 mmHg 26%
    17:00 +34°C° 0 mm 5 mps 753 mmHg 32%
    18:00 +32°C° 0 mm 4 mps 753 mmHg 39%
    19:00 +29°C° 0 mm 3 mps 753 mmHg 45%
    20:00 +28°C° 0 mm 3 mps 753 mmHg 45%
    21:00 +28°C° 0 mm 2 mps 754 mmHg 46%
    22:00 +27°C° 0 mm 1 mps 754 mmHg 46%
    23:00 +27°C° 0 mm 2 mps 754 mmHg 45%

    Tomorrow, 19 August, Saturday

    Time Temperature Precipitation Wind Pressure Humidity
    00:00 +26°C° 0 mm 2 mps 754 mmHg 44%
    01:00 +26°C° 0 mm 2 mps 754 mmHg 43%
    02:00 +25°C° 0 mm 2 mps 754 mmHg 43%
    03:00 +25°C° 0 mm 1 mps 754 mmHg 42%
    04:00 +25°C° 0 mm 1 mps 753 mmHg 41%
    05:00 +26°C° 0 mm 1 mps 753 mmHg 39%
    06:00 +28°C° 0 mm 1 mps 754 mmHg 36%
    07:00 +30°C° 0 mm 2 mps 754 mmHg 34%
    08:00 +32°C° 0 mm 2 mps 754 mmHg 30%
    09:00 +35°C° 0 mm 2 mps 754 mmHg 27%
    10:00 +37°C° 0 mm 2 mps 753 mmHg 23%
    11:00 +38°C° 0 mm 2 mps 753 mmHg 22%
    12:00 +38°C° 0 mm 3 mps 753 mmHg 22%
    13:00 +40°C° 0 mm 4 mps 752 mmHg 21%
    14:00 +38°C° 0 mm 3 mps 752 mmHg 23%
    15:00 +37°C° 0 mm 3 mps 752 mmHg 26%
    16:00 +36°C° 0 mm 3 mps 752 mmHg 28%
    17:00 +34°C° 0 mm 2 mps 752 mmHg 35%
    18:00 +30°C° 0 mm 1 mps 752 mmHg 41%
    19:00 +28°C° 0 mm 1 mps 752 mmHg 48%
    20:00 +27°C° 0 mm 1 mps 752 mmHg 48%
    21:00 +27°C° 0 mm 1 mps 753 mmHg 49%
    22:00 +26°C° 0 mm 2 mps 753 mmHg 49%
    23:00 +26°C° 0 mm 2 mps 753 mmHg 49%

    Day after tomorrow, 20 August, Sunday

    Time Temperature Precipitation Wind Pressure Humidity
    00:00 +25°C° 0 mm 2 mps 752 mmHg 49%
    01:00 +25°C° 0 mm 2 mps 752 mmHg 49%
    02:00 +25°C° 0 mm 2 mps 752 mmHg 49%
    03:00 +24°C° 0 mm 2 mps 752 mmHg 49%
    04:00 +24°C° 0 mm 2 mps 752 mmHg 49%
    05:00 +26°C° 0 mm 2 mps 752 mmHg 44%
    06:00 +28°C° 0 mm 2 mps 752 mmHg 40%
    07:00 +30°C° 0 mm 2 mps 752 mmHg 35%
    08:00 +32°C° 0 mm 2 mps 752 mmHg 31%
    09:00 +35°C° 0 mm 2 mps 752 mmHg 27%
    10:00 +37°C° 0 mm 2 mps 751 mmHg 23%
    11:00 +37°C° 0 mm 3 mps 751 mmHg 23%
    12:00 +38°C° 0 mm 4 mps 751 mmHg 22%
    13:00 +38°C° 0 mm 4 mps 750 mmHg 21%
    14:00 +37°C° 0 mm 4 mps 750 mmHg 24%
    15:00 +36°C° 0 mm 3 mps 750 mmHg 27%
    16:00 +36°C° 0 mm 3 mps 750 mmHg 30%
    17:00 +32°C° 0 mm 2 mps 750 mmHg 37%
    18:00 +29°C° 0 mm 2 mps 750 mmHg 45%
    19:00 +27°C° 0 mm 1 mps 751 mmHg 53%
    20:00 +26°C° 0.4 mm 2 mps 751 mmHg 57%
    21:00 +25°C° 0.4 mm 2 mps 751 mmHg 61%
    22:00 +24°C° 0.4 mm 3 mps 751 mmHg 65%
    23:00 +24°C° 1.1 mm 3 mps 751 mmHg 71%

    21 August, Monday

    Time Temperature Precipitation Wind Pressure Humidity
    00:00 +23°C° 1.1 mm 4 mps 751 mmHg 77%
    01:00 +22°C° 1.1 mm 4 mps 751 mmHg 83%
    02:00 +22°C° 0.1 mm 3 mps 751 mmHg 83%
    03:00 +23°C° 0.1 mm 2 mps 751 mmHg 82%
    04:00 +21°C° 0.1 mm 2 mps 751 mmHg 81%
    05:00 +23°C° 0 mm 2 mps 751 mmHg 76%
    06:00 +25°C° 0 mm 2 mps 751 mmHg 71%
    07:00 +26°C° 0 mm 2 mps 751 mmHg 67%
    08:00 +28°C° 0 mm 3 mps 751 mmHg 58%
    09:00 +30°C° 0 mm 3 mps 751 mmHg 49%
    10:00 +33°C° 0 mm 3 mps 751 mmHg 41%
    11:00 +33°C° 0.1 mm 4 mps 751 mmHg 38%
    12:00 +33°C° 0.1 mm 5 mps 751 mmHg 36%
    13:00 +34°C° 0.1 mm 6 mps 751 mmHg 34%
    14:00 +34°C° 0 mm 6 mps 751 mmHg 34%
    15:00 +33°C° 0 mm 7 mps 751 mmHg 35%
    16:00 +33°C° 0 mm 7 mps 750 mmHg 35%
    17:00 +30°C° 0 mm 7 mps 751 mmHg 42%
    18:00 +27°C° 0 mm 6 mps 751 mmHg 48%
    19:00 +24°C° 0 mm 6 mps 751 mmHg 55%
    20:00 +23°C° 0 mm 6 mps 752 mmHg 58%
    21:00 +22°C° 0 mm 5 mps 752 mmHg 61%
    22:00 +22°C° 0 mm 5 mps 752 mmHg 64%
    23:00 +21°C° 0 mm 5 mps 752 mmHg 64%

    22 August, Tuesday

    Time Temperature Precipitation Wind Pressure Humidity
    00:00 +21°C° 0 mm 5 mps 752 mmHg 65%
    01:00 +20°C° 0 mm 5 mps 752 mmHg 65%
    02:00 +20°C° 0 mm 5 mps 752 mmHg 65%
    03:00 +19°C° 0 mm 5 mps 753 mmHg 65%
    04:00 +19°C° 0 mm 5 mps 753 mmHg 65%
    05:00 +20°C° 0 mm 5 mps 753 mmHg 59%
    06:00 +22°C° 0 mm 5 mps 753 mmHg 53%
    07:00 +23°C° 0 mm 5 mps 753 mmHg 48%
    08:00 +26°C° 0 mm 5 mps 753 mmHg 41%
    09:00 +28°C° 0 mm 4 mps 753 mmHg 35%
    10:00 +30°C° 0 mm 4 mps 753 mmHg 28%
    11:00 +32°C° 0 mm 5 mps 753 mmHg 25%
    12:00 +33°C° 0 mm 6 mps 753 mmHg 23%
    13:00 +34°C° 0 mm 6 mps 752 mmHg 20%
    14:00 +33°C° 0 mm 7 mps 752 mmHg 21%
    15:00 +33°C° 0 mm 7 mps 752 mmHg 22%
    16:00 +32°C° 0 mm 8 mps 752 mmHg 23%
    17:00 +28°C° 0 mm 7 mps 752 mmHg 31%
    18:00 +26°C° 0 mm 6 mps 753 mmHg 40%
    19:00 +22°C° 0 mm 6 mps 753 mmHg 49%
    20:00 +21°C° 0 mm 5 mps 753 mmHg 48%
    21:00 +21°C° 0 mm 4 mps 754 mmHg 47%
    22:00 +20°C° 0 mm 3 mps 754 mmHg 46%
    23:00 +20°C° 0 mm 3 mps 754 mmHg 45%

    23 August, Wednesday

    Time Temperature Precipitation Wind Pressure Humidity
    00:00 +19°C° 0 mm 3 mps 754 mmHg 44%
    01:00 +19°C° 0 mm 3 mps 754 mmHg 44%
    02:00 +19°C° 0 mm 3 mps 754 mmHg 45%
    03:00 +18°C° 0 mm 3 mps 754 mmHg 46%
    04:00 +18°C° 0 mm 3 mps 754 mmHg 47%
    05:00 +20°C° 0 mm 3 mps 754 mmHg 44%
    06:00 +21°C° 0 mm 3 mps 754 mmHg 41%
    07:00 +24°C° 0 mm 3 mps 755 mmHg 39%
    08:00 +26°C° 0 mm 3 mps 755 mmHg 33%
    09:00 +29°C° 0 mm 3 mps 755 mmHg 28%
    10:00 +31°C° 0 mm 3 mps 755 mmHg 23%
    11:00 +33°C° 0 mm 3 mps 754 mmHg 21%
    12:00 +34°C° 0 mm 4 mps 754 mmHg 19%
    13:00 +34°C° 0 mm 5 mps 754 mmHg 17%
    14:00 +34°C° 0 mm 5 mps 754 mmHg 19%
    15:00 +33°C° 0 mm 6 mps 754 mmHg 20%
    16:00 +33°C° 0 mm 6 mps 754 mmHg 21%
    17:00 +29°C° 0 mm 5 mps 754 mmHg 28%
    18:00 +26°C° 0 mm 4 mps 754 mmHg 36%
    19:00 +22°C° 0 mm 3 mps 755 mmHg 43%
    20:00 +22°C° 0 mm 3 mps 755 mmHg 42%
    21:00 +21°C° 0 mm 2 mps 755 mmHg 41%
    22:00 +21°C° 0 mm 2 mps 755 mmHg 40%
    23:00 +21°C° 0 mm 2 mps 755 mmHg 39%
    Show more